CW9192 Weather Reports


time (UTC)temp
C
wind
direction
speed
KPH
gust
KPH
rain 1hr
cm
rain 24hr
cm
rain mn
cm
humidity
%
barometer
mb
20260504060107 5 231 3.2 29.0 0.00 0.00 0.00 87 1008.2
20260504050558 5 203 3.2 14.5 0.00 0.00 0.00 87 1008.9
20260504050123 5 261 4.8 20.9 0.00 0.00 0.00 87 1008.9
20260504045558 5 286 4.8 20.9 0.00 0.00 0.00 87 1009.0
20260504045058 5 291 4.8 12.9 0.00 0.00 0.00 87 1008.8
20260504044558 5 298 1.6 8.0 0.00 0.00 0.00 87 1008.8
20260504044100 5 37 1.6 11.3 0.00 0.00 0.00 87 1008.8
20260504043602 5 24 3.2 16.1 0.00 0.00 0.00 87 1008.8
20260504043110 5 303 4.8 16.1 0.00 0.00 0.00 87 1008.8
20260504042558 4 206 4.8 11.3 0.00 0.00 0.00 87 1008.7
20260504042057 4 240 1.6 16.1 0.00 0.00 0.00 87 1008.7
20260504041559 4 144 1.6 16.1 0.00 0.00 0.00 87 1008.6
20260504041102 4 232 3.2 12.9 0.00 0.00 0.00 87 1008.7
20260504040558 4 5 1.6 12.9 0.00 0.00 0.00 87 1008.8
20260504040113 4 254 3.2 12.9 0.00 0.00 0.00 87 1008.7
20260504035558 4 309 3.2 12.9 0.00 0.00 0.00 87 1008.7
20260504035059 4 199 3.2 9.7 0.00 0.00 0.00 86 1008.7
20260504034614 4 257 1.6 9.7 0.00 0.00 0.00 86 1008.8
20260504034058 4 213 1.6 11.3 0.00 0.00 0.00 86 1008.8
20260504033558 4 209 3.2 11.3 0.00 0.00 0.00 86 1008.9
20260504033101 3 234 3.2 11.3 0.00 0.00 0.00 86 1009.0
20260504032558 3 193 3.2 11.3 0.00 0.00 0.00 86 1009.0
20260504032058 3 290 4.8 20.9 0.00 0.00 0.00 86 1009.2
20260504031611 3 273 6.4 20.9 0.00 0.00 0.00 85 1009.3
20260504031057 3 188 6.4 17.7 0.00 0.00 0.00 85 1009.2
20260504030602 3 281 4.8 17.7 0.00 0.00 0.00 85 1009.4
20260504030114 3 268 4.8 11.3 0.00 0.00 0.00 85 1009.4
20260504025558 4 278 3.2 14.5 0.00 0.00 0.00 85 1009.4
20260504025059 4 267 3.2 14.5 0.00 0.00 0.00 85 1009.4
20260504024556 4 255 4.8 12.9 0.00 0.00 0.00 85 1009.4
20260504024058 4 239 1.6 11.3 0.00 0.00 0.00 85 1009.4
20260504023558 4 0 1.6 11.3 0.00 0.00 0.00 84 1009.5
20260504023058 4 234 1.6 6.4 0.00 0.00 0.00 84 1009.5
20260504022558 4 308 3.2 8.0 0.00 0.00 0.00 84 1009.5
20260504022057 4 246 1.6 9.7 0.00 0.00 0.00 83 1009.6
20260504021606 4 248 3.2 9.7 0.00 0.00 0.00 83 1009.7
20260504021057 4 250 0.0 4.8 0.00 0.00 0.00 83 1009.8
20260504020559 4 0 1.6 4.8 0.00 0.00 0.00 82 1009.7
20260504020057 4 0 0.0 8.0 0.00 0.00 0.00 81 1009.7
20260504015558 4 208 0.0 8.0 0.00 0.00 0.00 81 1009.7
20260504015059 4 208 3.2 8.0 0.00 0.00 0.00 79 1009.8
20260504014600 4 282 1.6 11.3 0.00 0.00 0.00 78 1009.7
20260504014101 4 267 3.2 11.3 0.00 0.00 0.00 77 1009.8
20260504013558 5 283 1.6 19.3 0.00 0.00 0.00 76 1009.8
20260504013058 5 242 4.8 19.3 0.00 0.00 0.00 73 1009.9
20260504012602 5 342 1.6 22.5 0.00 0.00 0.00 72 1009.9
20260504012101 5 0 3.2 22.5 0.00 0.00 0.00 70 1009.9
20260504011600 5 306 9.7 19.3 0.00 0.00 0.00 68 1009.9
20260504011058 5 267 6.4 29.0 0.00 0.00 0.00 67 1009.9
20260504010558 5 109 4.8 29.0 0.00 0.00 0.00 65 1009.9
20260504010059 6 284 8.0 29.0 0.00 0.00 0.00 64 1009.6
20260504005558 6 288 3.2 17.7 0.00 0.00 0.00 63 1009.6
20260504005058 6 321 8.0 17.7 0.00 0.00 0.00 63 1009.5
20260504004609 6 276 6.4 17.7 0.00 0.00 0.00 62 1009.7
20260504004058 6 248 4.8 25.7 0.00 0.00 0.00 61 1009.7
20260504003557 6 280 11.3 25.7 0.00 0.00 0.00 59 1009.7
20260504003059 6 254 4.8 24.1 0.00 0.00 0.00 55 1009.7
20260504002558 6 231 4.8 19.3 0.00 0.00 0.00 53 1009.6
20260504002058 6 257 4.8 19.3 0.00 0.00 0.00 50 1009.5
20260504001601 6 270 9.7 20.9 0.00 0.00 0.00 49 1009.5
20260504001058 6 311 8.0 20.9 0.00 0.00 0.00 49 1009.3
20260504000558 6 223 4.8 12.9 0.00 0.00 0.00 47 1009.3
20260504000136 7 226 3.2 11.3 0.00 0.00 0.00 46 1009.3
20260503235558 7 286 4.8 11.3 0.00 0.00 0.00 45 1009.3
20260503235058 7 251 1.6 11.3 0.00 0.00 0.00 45 1009.2
20260503234556 7 0 4.8 11.3 0.00 0.00 0.00 44 1009.2
20260503234058 7 249 3.2 16.1 0.00 0.00 0.00 44 1009.2
20260503233558 7 146 6.4 16.1 0.00 0.00 0.00 44 1009.1
20260503233055 7 348 4.8 17.7 0.00 0.00 0.00 44 1009.2
20260503232557 7 293 3.2 20.9 0.00 0.00 0.00 44 1009.1
20260503232057 7 291 4.8 20.9 0.00 0.00 0.00 44 1009.0
20260503231559 7 300 8.0 20.9 0.00 0.00 0.00 43 1009.0
20260503231058 7 275 8.0 25.7 0.00 0.00 0.00 44 1009.1
20260503230558 7 288 11.3 25.7 0.00 0.00 0.00 43 1009.1
20260503230059 7 360 9.7 25.7 0.00 0.00 0.00 42 1009.2
20260503225558 7 243 8.0 29.0 0.00 0.00 0.00 42 1009.2
20260503225058 7 242 8.0 29.0 0.00 0.00 0.00 42 1009.1
20260503224559 8 301 12.9 29.0 0.00 0.00 0.00 41 1009.0
20260503224058 8 293 8.0 30.6 0.00 0.00 0.00 42 1009.0
20260503223558 8 360 11.3 30.6 0.00 0.00 0.00 43 1009.0
20260503223056 8 232 9.7 24.1 0.00 0.00 0.00 42 1008.9
20260503222557 8 321 11.3 24.1 0.00 0.00 0.00 42 1008.9
20260503222057 8 28 9.7 24.1 0.00 0.00 0.00 39 1008.9
20260503221557 8 262 11.3 24.1 0.00 0.00 0.00 38 1008.8
20260503221101 8 333 9.7 30.6 0.00 0.00 0.00 39 1008.8
20260503220558 8 230 12.9 30.6 0.00 0.00 0.00 41 1008.8
20260503220059 8 322 11.3 27.4 0.00 0.00 0.00 40 1008.8
20260503215558 8 311 11.3 24.1 0.00 0.00 0.00 40 1008.9
20260503215057 8 265 11.3 29.0 0.00 0.00 0.00 42 1008.8
20260503214555 8 316 12.9 29.0 0.00 0.00 0.00 40 1008.6
20260503214058 8 252 8.0 29.0 0.00 0.00 0.00 38 1008.8
20260503213604 8 294 11.3 30.6 0.00 0.00 0.00 39 1008.7
20260503213059 8 292 11.3 30.6 0.00 0.00 0.00 39 1008.8
20260503212558 8 298 12.9 29.0 0.00 0.00 0.00 39 1008.8
20260503212057 8 304 12.9 29.0 0.00 0.00 0.00 40 1008.8
20260503211556 8 287 11.3 29.0 0.00 0.00 0.00 36 1008.7
20260503211057 8 300 12.9 29.0 0.00 0.00 0.00 34 1008.7
20260503210557 8 306 11.3 29.0 0.00 0.00 0.00 34 1008.6
20260503205558 9 297 9.7 20.9 0.00 0.00 0.00 34 1008.6
20260503205100 9 267 9.7 24.1 0.00 0.00 0.00 34 1008.6
20260503204558 9 116 8.0 24.1 0.00 0.00 0.00 35 1008.5
20260503204100 9 287 11.3 25.7 0.00 0.00 0.00 34 1008.6
20260503203601 9 285 12.9 27.4 0.00 0.00 0.00 34 1008.6
20260503203110 9 301 12.9 27.4 0.00 0.00 0.00 33 1008.7
20260503202558 9 311 8.0 29.0 0.00 0.00 0.00 34 1008.5
20260503202101 9 315 8.0 29.0 0.00 0.00 0.00 31 1008.4
20260503201602 9 360 14.5 30.6 0.00 0.00 0.00 31 1008.6
20260503201100 9 319 11.3 30.6 0.00 0.00 0.00 32 1008.3
20260503200557 9 331 16.1 30.6 0.00 0.00 0.00 32 1008.5
20260503200057 9 318 11.3 29.0 0.00 0.00 0.00 31 1008.4
20260503195558 9 277 11.3 30.6 0.00 0.00 0.00 31 1008.5
20260503195057 9 290 14.5 30.6 0.00 0.00 0.00 34 1008.6
20260503194602 9 325 12.9 24.1 0.00 0.00 0.00 33 1008.7
20260503194057 9 250 8.0 24.1 0.00 0.00 0.00 34 1008.6
20260503193558 8 265 11.3 25.7 0.00 0.00 0.00 35 1008.8
20260503193059 8 308 9.7 32.2 0.00 0.00 0.00 36 1008.7
20260503192557 8 283 9.7 32.2 0.00 0.00 0.00 35 1009.0
20260503192058 8 246 11.3 22.5 0.00 0.00 0.00 34 1009.0
20260503191612 8 344 11.3 25.7 0.00 0.00 0.00 36 1009.1
20260503191100 8 303 12.9 25.7 0.00 0.00 0.00 36 1009.1
20260503190558 8 38 11.3 29.0 0.00 0.00 0.00 36 1009.2
20260503190100 8 241 8.0 29.0 0.00 0.00 0.00 39 1009.2
20260503185557 7 338 9.7 29.0 0.00 0.00 0.00 42 1009.4
20260503185058 8 311 16.1 30.6 0.00 0.00 0.00 39 1009.4
20260503184624 8 257 11.3 30.6 0.00 0.00 0.00 38 1009.4
20260503184057 8 265 8.0 25.7 0.00 0.00 0.00 40 1009.4
20260503183558 7 258 8.0 25.7 0.00 0.00 0.00 41 1009.4
20260503183106 7 297 11.3 25.7 0.00 0.00 0.00 38 1009.5
20260503182558 8 252 8.0 30.6 0.00 0.00 0.00 39 1009.5
20260503182058 8 305 11.3 30.6 0.00 0.00 0.00 39 1009.7
20260503181559 7 316 8.0 24.1 0.00 0.00 0.00 40 1009.7
20260503181058 8 325 9.7 20.9 0.00 0.00 0.00 38 1009.7
20260503180558 7 300 9.7 19.3 0.00 0.00 0.00 40 1009.9
20260503180058 7 268 4.8 24.1 0.00 0.00 0.00 43 1009.8
20260503175558 6 342 8.0 24.1 0.00 0.00 0.00 42 1009.8
20260503175057 6 250 11.3 24.1 0.00 0.00 0.00 45 1009.9
20260503174558 6 299 8.0 24.1 0.00 0.00 0.00 43 1009.9
20260503174057 6 23 8.0 25.7 0.00 0.00 0.00 41 1009.9
20260503173558 6 12 8.0 25.7 0.00 0.00 0.00 45 1010.0
20260503173058 6 287 8.0 24.1 0.00 0.00 0.00 46 1010.0
20260503172558 6 267 8.0 24.1 0.00 0.00 0.00 46 1009.9
20260503172058 6 303 6.4 22.5 0.00 0.00 0.00 45 1009.9
20260503171611 6 302 6.4 20.9 0.00 0.00 0.00 47 1010.0
20260503171101 6 273 9.7 20.9 0.00 0.00 0.00 46 1009.8
20260503170558 6 0 6.4 17.7 0.00 0.00 0.00 47 1009.8
20260503170106 5 271 6.4 20.9 0.00 0.00 0.00 47 1010.0
20260503150559 5 346 6.4 20.9 0.00 0.00 0.00 57 1010.8
20260503131101 3 285 4.8 12.9 0.00 0.00 0.00 65 1011.2
20260503130601 3 328 4.8 17.7 0.00 0.00 0.00 66 1011.2
20260503110559 1 325 4.8 16.1 0.00 0.00 0.00 77 1010.9
20260503090117 1 314 4.8 19.3 0.00 0.00 0.00 80 1010.6
20260503081601 1 348 3.2 11.3 0.00 0.00 0.00 81 1010.8
20260503081059 1 240 3.2 6.4 0.00 0.00 0.00 81 1010.9
20260503080559 1 217 3.2 6.4 0.00 0.00 0.00 81 1011.1
20260503080109 1 241 1.6 4.8 0.00 0.00 0.00 81 1011.1
20260503072559 1 259 0.0 6.4 0.00 0.00 0.00 81 1010.8